STARLINK-34817

Last updated on Tue Sep 16 2025 00:02:07 GMT+0000 (Coordinated Universal Time)

1 65362U 25190M 25258.05251004 .03509154 00000+0 27798-1 0 9998 2 65362 53.1592 267.5989 0012803 195.9847 164.0768 15.66749688 2815
UTC large
Height (km)
Speed (km/s)
/
Latitude / Longitude
Inclination (degrees)
Orbital Period (minutes)
Azimuth
Elevation
Range (km)
Doppler Factor

Next 0 passes for location: London (51.5072 / 0.1276)

Sorry there are no passes over London.